This demonstration page uses our WeatherBlox Daily Observations layout. Learn more.

41.55636, -103.73856

Hourly Observations for February 4, 2019

Temp ( °F °C ) Dew Point ( °F °C ) Humidity (%) Winds ( mph kmh ) Pressure ( in mb ) Visibility ( mi km ) Precip ( " mm )
12:58 am 00:58 Clear 36 2.4 24 -4.3 62 62 WNW 12 19 29.6 1003 10 16.0934 N/A
1:58 am 01:58 Clear 38 3.5 22 -5.3 53 53 W 21 33 29.57 1001 10 16.0934 N/A
2:58 am 02:58 Clear 38 3.1 24 -4.4 58 58 WNW 17 28 29.59 1002 10 16.0934 N/A
3:58 am 03:58 Clear 36 2.1 25 -4 64 64 WNW 15 24 29.62 1003 10 16.0934 N/A
4:58 am 04:58 Clear 32 -0.1 23 -4.9 70 70 WNW 14 22 29.65 1004 10 16.0934 N/A
5:58 am 05:58 Clear 32 -0.1 22 -5.4 68 68 NW 10 17 29.61 1003 10 16.0934 N/A
6:58 am 06:58 Clear 30 -1.2 22 -5.7 72 72 NE 7 11 29.64 1004 10 16.0934 N/A
7:58 am 07:58 Clear 25 -4 21 -6.1 86 86 Calm 29.68 1005 10 16.0934 N/A
8:58 am 08:58 Clear 19 -7.1 17 -8.3 91 91 Calm 29.75 1008 9 14.48406 N/A
9:58 am 09:58 Mostly Cloudy with Freezing Fog 14 -9.9 12 -11.2 90 90 ENE 3 6 29.79 1009 1 1.60934 N/A
10:58 am 10:58 Mostly Cloudy with Freezing Fog 13 -10.5 11 -11.8 90 90 E 3 6 29.79 1009 5 8.0467 N/A
11:58 am 11:58 Mostly Cloudy with Freezing Fog 13 -10.8 10 -12.3 89 89 Calm 29.85 1011 1 1.60934 N/A
12:58 pm 12:58 Mostly Cloudy with Freezing Fog 12 -10.9 10 -12.5 88 88 Calm 29.89 1012 1 1.60934 N/A
1:58 pm 13:58 Mostly Cloudy with Freezing Fog 12 -11 10 -12.4 90 90 SE 3 6 29.89 1012 1 1.60934 N/A
2:58 pm 14:58 Mostly Cloudy with Freezing Fog 13 -10.6 11 -11.8 91 91 SSE 3 6 29.92 1013 1 1.60934 N/A
3:58 pm 15:58 Mostly Cloudy with Freezing Fog 15 -9.3 13 -10.4 92 92 S 5 7 29.91 1013 0.25 0.402335 N/A
4:58 pm 16:58 Mostly Cloudy with Mist and Fog 17 -8.2 15 -9.5 90 90 SSE 7 11 29.9 1013 7 11.26538 N/A
5:58 pm 17:58 Mostly Cloudy with Mist and Fog 18 -7.7 16 -8.8 92 92 SSE 10 17 29.9 1013 1.75 2.816345 N/A
6:58 pm 18:58 Cloudy 19 -7.3 17 -8.4 92 92 SE 9 15 29.89 1012 5 8.0467 N/A
7:58 pm 19:58 Mostly Cloudy with Light Snow Showers 20 -6.9 17 -8.1 91 91 SE 14 22 29.89 1012 8 12.87472 N/A
8:58 pm 20:58 Mostly Cloudy with Light Snow Showers 21 -5.9 20 -6.8 93 93 SSE 16 26 29.88 1012 10 16.0934 N/A
9:58 pm 21:58 Sunny 23 -4.9 21 -5.9 93 93 SE 17 28 29.88 1012 10 16.0934 N/A
10:58 pm 22:58 Sunny 26 -3.4 18 -7.9 71 71 SE 20 31 29.87 1012 10 16.0934 N/A

Powered by AerisWeather